Temperature
21 21 21 21 20 19 19 18 18 17 16 15 15 14 14 14 14 13 13 13 13 12 12 12 11 11 11 10 10 10 10 10 9 9 9 9 10 10 10 10 10 10 10
20 21 21 21 20 20 19 19 18 18 17 16 16 16 15 15 14 14 13 13 13 12 12 12 11 11 11 10 10 10 10 9 9 9 9 9 9 10 10 10 10 9 9
20 21 21 21 20 20 20 19 19 18 17 17 16 15 14 13 13 13 13 13 13 12 12 12 12 11 11 11 10 10 10 10 9 9 9 9 9 9 9 9 9 9 9
21 21 21 21 20 20 20 19 19 18 18 17 16 15 15 14 15 15 14 13 13 13 12 12 12 11 11 11 11 10 10 10 9 9 9 9 9 8 8 9 9 9 9
20 21 21 21 21 21 20 20 19 18 18 17 16 16 16 16 15 14 14 13 13 13 12 12 12 11 11 11 10 10 10 10 9 9 9 9 8 8 8 8 8 8 8
20 20 21 21 21 20 20 19 19 18 18 17 17 16 16 16 15 14 14 14 13 13 13 12 12 11 11 11 10 10 10 10 9 9 9 9 8 8 8 8 8 8 8
20 20 20 20 20 20 20 19 19 18 18 17 17 17 16 16 15 15 15 14 14 13 13 12 12 12 11 11 10 10 10 10 9 9 9 9 8 8 8 7 7 7 7
19 19 20 20 20 20 19 19 19 18 18 18 17 17 16 16 15 15 15 14 14 14 13 13 12 12 11 11 10 10 10 10 9 9 9 8 8 8 8 7 7 6 6
19 19 19 20 19 19 19 19 19 18 18 18 17 17 16 16 16 15 15 14 14 14 13 13 12 12 11 11 10 10 10 10 9 9 9 8 8 8 7 7 6 6 5
18 19 19 19 19 19 19 19 18 18 18 18 17 17 16 16 16 15 14 14 14 13 13 12 12 11 11 11 10 10 10 9 9 9 9 8 8 7 7 7 6 6 5
18 18 18 18 18 18 18 18 18 18 17 17 17 17 16 16 15 15 14 14 14 13 13 12 12 11 11 11 10 10 10 9 9 9 8 8 8 7 7 6 6 6 5
17 18 18 18 18 18 18 18 18 18 18 17 17 17 16 16 15 15 14 14 13 13 13 12 12 11 11 11 10 10 9 9 9 8 8 8 7 7 6 6 6 5 5
17 17 17 17 17 17 17 17 18 18 17 17 17 16 16 16 15 15 14 14 13 13 12 12 11 11 11 10 10 9 9 9 8 8 7 7 7 6 6 6 5 5 4
16 16 17 17 17 17 17 17 17 17 17 17 16 16 16 15 15 15 14 14 13 13 12 12 11 11 11 10 10 9 9 8 8 8 7 7 6 6 6 5 4 4 3
15 15 16 16 17 17 17 17 17 17 16 16 16 16 16 15 15 14 14 13 13 12 12 11 11 10 10 10 9 9 8 8 8 7 7 6 6 6 5 4 4 3 3
14 15 15 15 16 16 16 16 16 16 16 16 16 16 15 15 14 14 14 13 13 12 11 11 10 10 10 10 9 8 8 8 7 7 6 6 5 5 4 4 3 3 2
14 14 15 15 15 15 16 16 16 16 15 15 15 15 15 15 14 14 13 13 12 12 11 10 10 10 10 9 8 8 7 7 7 6 6 5 5 4 4 3 3 2 2
13 14 14 14 15 15 15 15 15 15 15 15 15 15 14 14 14 13 13 12 12 11 11 10 10 9 9 8 8 7 7 7 6 6 5 5 4 4 3 3 2 2 1
13 13 14 14 14 14 14 14 14 14 14 14 14 14 14 14 13 13 12 12 11 11 10 10 9 9 8 8 7 7 6 6 5 5 4 4 3 3 2 2 1 1 0
12 12 13 13 13 13 14 14 14 14 14 14 14 14 13 13 13 12 12 11 11 10 9 9 8 8 8 7 7 6 6 5 5 4 4 3 3 2 2 1 1 0 -0
11 12 12 12 12 13 13 13 13 13 13 13 13 13 13 12 12 11 11 10 10 9 8 8 8 7 7 7 6 6 5 5 4 4 3 3 2 1 1 0 -0 -1 -1
11 11 11 11 12 12 12 12 12 12 12 12 12 12 12 11 11 10 10 9 9 8 8 7 7 7 6 6 5 5 4 4 3 3 2 2 1 1 0 -0 -1 -1 -2
10 10 10 10 11 11 11 11 12 12 11 11 11 11 11 10 10 10 9 8 8 8 7 7 6 6 6 5 4 4 3 3 2 2 1 1 0 -0 -1 -1 -2 -2 -3
9 9 9 10 10 10 10 10 10 10 10 10 10 10 10 9 9 9 8 8 8 7 7 6 6 5 5 4 4 3 3 2 1 1 0 0 -0 -1 -1 -2 -3 -3 -4
8 8 8 9 9 9 9 9 9 9 9 9 9 9 9 8 8 8 7 7 7 7 6 6 5 5 5 4 3 3 2 2 1 0 -0 -1 -1 -2 -2 -3 -3 -4 -4
7 7 7 7 7 8 8 8 8 8 8 8 8 8 8 7 7 6 6 5 5 5 5 5 4 4 3 3 2 2 1 1 0 -0 -1 -1 -2 -2 -3 -3 -4 -4 -5
Wind_Speed
15 12 14 14 14 15 17 19 19 18 15 13 12 12 12 10 10 10 15 17 17 18 14 8 8 8 8 8 7 5 5 3 3 1 2 4 4 5 5 5 5 6 9
12 11 11 12 15 17 18 19 20 19 18 16 14 11 10 8 9 8 11 16 17 17 15 11 10 9 8 8 8 6 4 3 4 4 1 3 4 3 4 4 5 6 6
15 13 12 13 14 16 18 18 20 19 19 16 10 7 5 4 6 9 10 12 16 16 14 13 10 10 10 9 10 8 8 6 5 4 4 3 5 3 3 4 5 5 4
13 12 13 13 14 16 16 17 18 19 18 16 14 14 12 12 12 10 10 10 13 14 15 14 12 11 10 10 10 9 7 7 5 4 5 4 4 3 3 3 3 4 6
13 13 14 14 14 14 14 15 16 17 17 17 18 17 15 12 8 7 10 11 11 12 13 14 12 11 10 11 10 9 9 7 7 6 4 4 3 4 4 5 4 3 5
11 11 10 10 10 10 12 13 15 16 17 18 18 19 17 14 11 11 12 11 9 10 12 12 12 12 10 11 11 10 10 9 8 7 5 5 4 5 5 7 6 6 5
9 9 9 9 10 11 12 13 15 16 17 18 18 19 19 17 17 15 14 12 9 10 13 12 12 11 10 10 10 10 10 10 9 9 7 6 6 4 4 5 6 5 4
8 9 10 10 10 11 13 14 16 16 17 18 18 16 16 14 13 14 12 13 12 12 11 12 12 11 11 10 10 9 9 8 9 9 8 7 7 5 5 5 4 5 5
9 9 9 9 9 10 13 15 16 15 16 17 16 15 15 14 13 13 12 10 9 9 10 12 12 11 11 11 10 9 10 8 9 9 9 7 6 6 6 5 5 5 6
8 8 8 9 9 9 9 10 13 15 14 15 15 14 15 15 13 12 13 12 11 10 10 11 11 11 11 11 10 8 8 9 9 7 8 8 6 5 5 5 5 6 6
8 8 8 8 7 7 7 9 10 11 12 14 14 14 14 13 12 12 13 12 11 11 11 12 12 11 11 10 10 10 9 10 9 7 8 9 7 6 5 5 5 5 5
7 7 7 6 6 7 7 9 9 10 12 12 12 13 12 12 12 13 12 12 12 11 12 11 11 11 11 11 11 11 10 10 10 9 8 8 6 7 5 5 6 6 6
6 5 5 6 7 8 8 9 9 10 10 10 11 12 12 12 13 13 11 11 11 11 10 11 11 11 10 10 11 10 10 10 10 9 9 8 7 7 6 5 6 5 4
5 5 6 6 7 8 8 9 9 9 9 9 11 12 13 13 13 11 11 11 11 11 11 11 11 10 10 10 10 10 9 9 8 8 8 8 8 8 7 6 6 5 4
7 7 7 8 7 7 7 8 9 8 8 9 11 13 12 11 10 10 10 10 10 10 10 10 9 9 9 9 10 9 9 8 7 6 7 7 7 8 7 5 5 5 4
9 9 8 8 8 9 9 9 9 8 8 10 11 10 10 10 11 11 10 10 10 9 9 10 10 9 8 10 13 10 8 8 8 7 6 5 6 6 7 7 6 6 5
10 9 9 9 10 10 9 10 10 8 8 9 9 9 10 11 11 10 10 11 10 9 9 9 9 9 9 12 13 12 8 7 7 7 5 4 4 4 4 5 6 5 6
10 10 9 8 8 8 8 7 6 7 8 9 9 9 9 10 10 10 11 10 8 9 9 9 9 8 8 11 12 12 8 6 6 6 6 6 4 4 4 4 3 3 3
10 9 9 8 7 7 7 6 6 7 8 9 9 9 10 10 10 11 11 8 8 8 8 8 8 8 7 10 11 10 6 5 5 5 5 5 5 6 5 4 3 3 3
8 7 7 6 6 6 5 6 7 7 9 10 10 9 10 11 11 11 9 7 7 8 7 7 7 8 7 9 11 10 6 5 4 3 4 5 5 6 5 4 4 4 4
7 6 5 5 6 4 5 6 6 9 9 7 6 7 8 10 9 8 7 7 7 7 7 6 5 6 7 9 12 11 6 6 5 4 4 4 6 5 5 4 4 5 3
6 5 5 5 4 3 5 6 7 7 4 4 5 6 7 7 7 8 7 8 9 8 7 6 5 4 5 7 10 11 9 7 5 5 4 4 6 5 4 3 3 3 1
6 5 5 6 5 3 4 6 6 3 3 4 5 5 5 6 7 8 9 8 8 7 6 6 6 4 3 5 9 10 9 8 5 4 5 5 5 3 2 2 2 1 1
6 5 4 5 5 4 4 5 3 3 4 5 4 5 6 6 6 6 7 8 8 7 7 7 6 5 5 5 5 5 6 6 5 4 5 5 4 2 2 1 1 1 1
6 5 5 5 6 4 4 3 2 3 4 5 5 5 5 6 6 5 5 6 6 8 8 8 8 8 7 8 10 7 6 6 6 6 4 3 2 2 1 1 1 1 1
6 5 5 5 5 4 4 3 2 4 5 5 5 4 4 5 5 5 3 3 3 6 7 7 7 5 6 9 10 9 9 9 10 6 4 4 4 4 3 3 2 2 2
Wind_Direction
237 227 216 207 199 195 193 192 190 188 183 185 187 189 196 196 196 199 198 197 196 194 192 192 190 187 194 197 192 186 197 208 176 173 294 293 265 251 244 233 230 230 232
241 232 218 204 197 194 193 192 192 188 187 191 192 192 189 192 196 196 198 199 197 195 196 193 194 193 196 198 196 187 186 200 176 170 198 298 312 283 249 235 232 238 234
231 228 217 209 200 197 194 194 193 191 191 187 179 166 160 167 186 199 202 202 199 198 198 197 195 195 195 203 203 195 190 205 208 189 180 205 242 283 290 251 240 239 237
229 223 215 210 204 202 196 194 192 191 190 183 182 180 189 199 203 199 200 200 200 200 200 198 197 198 200 203 205 200 198 193 211 213 216 214 194 214 284 289 268 251 244
225 220 215 211 207 198 192 192 189 191 188 187 189 190 199 204 196 189 194 201 204 203 202 200 199 202 203 205 204 200 201 201 205 203 198 215 224 216 227 266 277 278 255
228 224 219 208 204 193 189 187 187 191 189 190 192 194 198 195 188 194 199 204 206 207 206 202 203 205 205 205 206 204 203 207 208 209 200 192 200 212 215 242 257 263 263
224 219 211 206 202 193 190 188 188 192 191 192 196 199 200 197 199 200 203 203 205 209 209 204 205 206 206 204 201 204 208 207 208 211 214 212 219 207 207 234 259 264 270
222 218 213 203 200 199 194 191 193 194 192 194 199 200 199 201 206 205 204 206 210 212 205 203 205 205 202 202 200 207 211 208 212 215 213 218 223 213 209 214 235 272 279
226 221 216 207 202 201 200 195 195 196 196 196 197 199 200 201 205 203 203 206 208 204 198 200 203 203 201 201 199 209 211 209 214 217 218 222 225 219 221 217 212 229 269
237 232 221 214 210 207 204 198 198 199 198 197 198 201 202 204 203 199 203 205 204 198 193 197 201 201 202 201 200 207 209 208 216 214 216 224 227 223 219 218 219 218 236
242 236 230 221 214 208 201 200 200 201 200 200 200 200 201 201 199 202 205 204 200 197 197 198 199 201 201 199 201 207 203 209 215 213 215 224 219 220 222 218 218 223 222
252 245 235 222 217 214 211 208 205 205 206 202 199 201 200 196 199 204 204 199 198 197 197 195 197 200 201 199 202 206 203 207 212 214 213 222 217 221 222 219 224 227 221
269 263 246 230 223 219 215 213 211 211 208 198 197 199 198 197 201 204 199 195 195 194 192 192 197 199 199 198 201 202 204 207 212 210 211 217 210 223 224 220 225 226 226
278 267 257 246 234 223 218 217 218 211 203 198 197 201 203 201 201 198 193 193 192 191 191 193 196 197 196 196 197 198 201 205 209 208 209 210 209 218 219 222 225 221 225
284 272 260 253 245 235 226 220 219 211 201 198 202 207 204 198 194 192 192 189 189 191 189 188 190 191 193 197 193 195 197 199 202 205 208 211 212 217 215 219 217 209 222
276 269 262 257 248 235 229 223 220 213 200 202 209 207 197 193 193 193 188 185 187 185 183 188 189 192 199 196 190 188 191 193 196 203 208 210 211 218 225 234 229 216 220
272 266 259 252 249 239 227 221 219 208 199 205 207 201 195 194 194 187 184 187 187 182 185 190 189 195 198 189 188 187 185 189 196 198 197 203 208 204 202 229 238 243 246
273 269 263 260 253 241 228 222 210 200 200 204 206 200 193 193 187 182 188 189 184 184 189 191 190 190 193 187 188 183 182 184 191 193 192 193 198 203 198 195 208 230 245
271 268 261 252 250 240 224 207 204 201 202 207 208 202 193 188 184 187 190 188 182 186 188 185 184 187 191 187 182 173 174 178 185 187 185 187 197 212 205 191 205 231 255
275 275 273 257 252 248 213 196 204 203 212 214 210 200 190 187 189 190 186 181 180 184 179 180 184 183 185 184 178 171 171 176 180 178 187 196 201 210 205 194 197 220 238
276 275 272 263 255 243 200 205 210 218 222 214 201 192 189 187 185 179 175 169 167 166 171 173 176 180 181 180 180 178 178 179 178 182 188 200 200 205 210 213 206 228 228
285 283 276 275 275 238 202 215 224 226 208 187 188 189 185 176 168 167 169 165 164 167 172 171 172 180 180 180 185 185 185 176 174 184 188 194 195 202 210 221 230 231 203
286 288 274 279 286 256 215 224 237 211 175 177 186 182 172 168 167 168 168 167 168 173 177 176 181 182 177 183 185 183 179 175 172 177 183 185 184 179 189 216 216 185 154
290 293 289 283 285 277 253 239 231 185 175 184 185 175 168 168 167 169 169 172 176 178 180 181 185 181 179 181 178 173 169 167 162 157 164 166 161 151 177 192 187 164 193
293 293 284 278 279 279 266 254 209 180 186 187 182 176 171 168 167 168 176 179 186 183 183 187 182 181 192 195 182 169 167 165 161 142 133 139 152 165 176 183 191 187 194
293 292 285 280 283 282 276 267 218 187 180 181 180 176 170 162 160 153 123 109 146 161 165 170 172 184 180 171 175 174 171 166 160 147 159 176 184 193 198 202 211 216 214
Height
1450 1453 1455 1458 1460 1463 1466 1469 1472 1476 1480 1483 1486 1489 1491 1494 1497 1500 1502 1505 1507 1509 1511 1512 1514 1516 1517 1518 1519 1520 1521 1521 1522 1522 1521 1521 1520 1519 1519 1518 1518 1517 1517
1443 1445 1448 1451 1453 1456 1459 1463 1466 1469 1473 1476 1479 1483 1486 1489 1492 1495 1498 1500 1502 1504 1506 1508 1509 1511 1513 1514 1515 1516 1517 1517 1518 1518 1518 1516 1516 1514 1514 1514 1514 1514 1513
1436 1438 1440 1443 1446 1449 1452 1455 1459 1463 1466 1470 1475 1479 1482 1485 1487 1489 1491 1494 1497 1499 1501 1503 1505 1506 1508 1509 1510 1512 1512 1513 1514 1514 1515 1513 1511 1510 1510 1509 1509 1509 1509
1429 1431 1433 1435 1438 1442 1446 1449 1453 1456 1460 1465 1468 1470 1473 1475 1478 1482 1485 1489 1492 1494 1496 1498 1500 1501 1503 1504 1506 1507 1508 1509 1509 1509 1510 1510 1509 1508 1505 1505 1505 1504 1504
1422 1424 1426 1429 1432 1436 1439 1443 1446 1450 1454 1458 1461 1464 1467 1470 1474 1477 1480 1483 1486 1488 1490 1492 1494 1496 1497 1499 1501 1502 1503 1503 1504 1504 1504 1504 1504 1504 1502 1499 1499 1499 1498
1416 1418 1421 1423 1426 1430 1433 1436 1440 1443 1447 1451 1454 1457 1460 1464 1467 1470 1474 1477 1480 1482 1484 1486 1488 1490 1491 1493 1495 1496 1497 1498 1498 1499 1499 1499 1499 1498 1497 1495 1493 1492 1492
1411 1413 1415 1417 1420 1423 1427 1430 1434 1437 1441 1445 1448 1451 1454 1458 1461 1464 1467 1470 1473 1475 1477 1480 1482 1484 1485 1487 1489 1490 1491 1492 1492 1493 1493 1493 1493 1493 1493 1491 1488 1486 1485
1407 1408 1410 1412 1415 1418 1421 1424 1428 1431 1435 1438 1442 1445 1449 1452 1455 1458 1461 1463 1466 1469 1471 1474 1476 1478 1480 1482 1483 1484 1485 1486 1486 1487 1487 1487 1488 1488 1487 1486 1485 1481 1479
1404 1405 1406 1408 1411 1413 1416 1419 1422 1425 1429 1432 1436 1439 1443 1446 1448 1452 1455 1457 1460 1463 1465 1468 1470 1472 1473 1475 1477 1478 1479 1480 1481 1481 1482 1481 1482 1482 1482 1481 1480 1479 1473
1401 1402 1403 1405 1407 1409 1412 1415 1417 1420 1423 1427 1430 1433 1436 1439 1443 1446 1448 1451 1454 1456 1459 1461 1463 1465 1467 1469 1470 1471 1473 1474 1474 1475 1475 1475 1475 1475 1475 1474 1474 1472 1470
1398 1398 1399 1401 1403 1405 1407 1409 1412 1415 1418 1421 1424 1427 1430 1433 1436 1439 1441 1444 1447 1450 1452 1454 1457 1459 1460 1462 1464 1465 1466 1467 1468 1468 1469 1468 1469 1469 1468 1468 1467 1465 1464
1395 1396 1397 1398 1399 1400 1402 1404 1407 1409 1412 1415 1418 1421 1424 1427 1429 1432 1435 1438 1440 1443 1445 1448 1450 1452 1454 1456 1457 1458 1459 1460 1461 1462 1462 1462 1462 1462 1462 1461 1460 1458 1457
1393 1393 1393 1394 1395 1396 1397 1399 1401 1403 1406 1409 1412 1415 1417 1420 1422 1425 1428 1431 1434 1436 1438 1441 1443 1445 1447 1449 1450 1452 1453 1454 1455 1455 1455 1456 1456 1455 1455 1454 1453 1452 1451
1391 1390 1390 1390 1391 1392 1393 1394 1396 1398 1401 1403 1405 1408 1410 1413 1416 1419 1422 1424 1427 1429 1431 1433 1436 1438 1441 1442 1444 1445 1446 1447 1448 1449 1449 1449 1449 1449 1448 1447 1447 1446 1444
1388 1388 1388 1387 1387 1388 1389 1390 1391 1393 1395 1397 1399 1401 1404 1407 1410 1413 1415 1418 1420 1422 1425 1427 1429 1432 1434 1435 1437 1438 1440 1441 1441 1442 1443 1443 1443 1442 1442 1441 1440 1439 1438
1385 1384 1384 1383 1383 1383 1383 1384 1385 1387 1388 1390 1392 1395 1398 1401 1403 1406 1409 1411 1413 1416 1418 1420 1423 1425 1427 1429 1431 1432 1433 1434 1435 1435 1436 1436 1436 1436 1436 1435 1434 1433 1432
1380 1380 1379 1379 1378 1378 1378 1378 1379 1381 1383 1384 1386 1388 1391 1394 1396 1399 1402 1404 1407 1409 1411 1414 1416 1418 1420 1423 1424 1426 1427 1428 1428 1429 1429 1429 1429 1429 1429 1428 1428 1427 1426
1376 1374 1373 1372 1372 1372 1373 1373 1374 1375 1377 1378 1380 1382 1384 1386 1389 1392 1395 1398 1400 1402 1405 1407 1410 1412 1414 1416 1418 1420 1421 1422 1422 1423 1423 1423 1423 1423 1423 1422 1421 1420 1420
1370 1369 1367 1367 1366 1366 1367 1367 1368 1369 1370 1371 1373 1375 1377 1380 1382 1385 1388 1391 1393 1396 1398 1401 1403 1405 1407 1410 1412 1413 1414 1415 1416 1417 1417 1417 1417 1417 1417 1416 1415 1414 1413
1365 1363 1362 1361 1360 1360 1361 1361 1361 1362 1363 1365 1367 1369 1371 1373 1375 1378 1381 1384 1387 1390 1392 1395 1397 1399 1401 1404 1405 1407 1408 1408 1409 1410 1411 1411 1411 1411 1411 1410 1409 1408 1407
1360 1359 1357 1356 1355 1355 1356 1355 1356 1356 1358 1359 1361 1362 1364 1367 1369 1372 1375 1378 1381 1384 1387 1389 1391 1393 1395 1397 1399 1400 1402 1402 1403 1404 1404 1405 1405 1406 1405 1404 1403 1402 1402
1354 1353 1352 1351 1351 1351 1350 1350 1350 1351 1352 1353 1354 1356 1358 1361 1363 1366 1369 1372 1375 1378 1380 1383 1384 1387 1389 1391 1392 1394 1396 1397 1398 1398 1399 1399 1400 1400 1400 1399 1398 1397 1396
1349 1348 1347 1346 1346 1346 1345 1345 1345 1346 1346 1348 1349 1350 1352 1355 1357 1360 1363 1366 1369 1371 1373 1376 1378 1380 1382 1384 1386 1388 1389 1391 1392 1393 1394 1394 1394 1394 1394 1394 1393 1392 1391
1344 1343 1342 1341 1340 1340 1339 1339 1339 1340 1341 1342 1343 1345 1346 1349 1351 1354 1357 1360 1362 1365 1367 1369 1371 1374 1376 1378 1380 1382 1384 1385 1386 1387 1388 1389 1389 1389 1389 1389 1388 1387 1386
1340 1338 1337 1336 1335 1334 1334 1334 1334 1335 1335 1337 1338 1339 1341 1343 1345 1348 1351 1354 1356 1359 1361 1363 1365 1367 1369 1372 1374 1376 1378 1379 1381 1382 1382 1383 1383 1383 1383 1383 1383 1382 1382
1335 1334 1332 1331 1330 1329 1328 1329 1329 1330 1330 1331 1332 1334 1336 1338 1340 1343 1346 1349 1352 1354 1357 1359 1361 1363 1366 1368 1369 1371 1373 1374 1376 1377 1377 1377 1378 1378 1378 1378 1378 1378 1377